Location: Tamazert
(32.6352°N, 5.2072°W)
Time: 05:03:48
(UTC+00:00)

Vanguard 2 Rocket - Pass Details

Date: 08 October 2022
Orbit: 555 x 3321 km, 32.9° (Epoch: 04 December)

Event Time Altitude Azimuth Distance (km) Brightness Sun altitude
Rises 19:38:43 0° 228° (SW) 7,173 12.0 -22.3°
Reaches altitude 10° 19:43:35 10° 224° (SW) 6,248 11.6 -23.3°
Maximum altitude 20:03:06 57° 152° (SSE) 3,382 9.4 -27.4°
Enters shadow 20:09:20 42° 102° (ESE) 3,530 9.3 -28.6°
Drops below altitude 10° 20:17:34 10° 80° (E) 4,803 - -30.3°
Sets 20:20:44 0° 76° (ENE) 5,494 - -31.0°
